Starlink 6278

operational
NORAD ID: 56412 Int'l Des: 2023-061 Owner: SPXS Country: US Constellation: starlink
LEOCIRCULAR

Über Starlink 6278

Beschreibung wird geladen...

Live-Position

3D-Globus wird geladen...

Nächste Überflüge

Höhenverlauf

Altitude vs Time

uPlot chart will show altitude changes over time

Zweizeiliger Elementsatz

1 56412U 23061AQ 25354.09340223 .00000026 00000-0 17005-4 0 9997
2 56412 43.0029 256.7675 0000915 266.6818 93.3920 15.02530750144933
Epoch: 20. Dez. 2025 • Age: 8 hours

Aktueller Status

Höhe 559.5 km
Geschwindigkeit 7.58 km/s
Subsatellitenpunkt -4.71°S, 7.84°E
Startdatum 4. Mai 2023
Alter 2.6 years
Typ internet

Technische Details

Klassifizierung Payload
Masse 305.00 kg
Trockenmasse 290.00 kg
Gesamtmasse 305.00 kg
Länge 0.20 m
Durchmesser 2.80 m
Spannweite 9.00 m
Form Box + pan
Hersteller SPXS
Bus-Typ Starlink
Phasenstatus In Orbit
Besitzer/Staat SPXS/US

Große Konstellationen

Loading constellations...